Ithaca, NY

10:13 AM EST on February 07, 2016 (GMT -0500)
Tompkins County

Weather History for KITH - June, 2012

Change the Weather History Date:

Wednesday, June 13, 2012

  Actual Average Record
Temperature  
Mean Temperature 58 °F -  
Max Temperature 66 °F 75 °F 90 °F (1949)
Min Temperature 48 °F 52 °F 37 °F (1927)
Degree Days  
Heating Degree Days 7    
Growing Degree Days 8 (Base 50)    
Moisture  
Dew Point 49 °F    
Average Humidity 77    
Maximum Humidity 100    
Minimum Humidity 58    
Precipitation  
Precipitation 0.00 in - - ()
Sea Level Pressure  
Sea Level Pressure 30.10 in    
Wind  
Wind Speed 8 mph (NNW)    
Max Wind Speed 12 mph    
Max Gust Speed 18 mph    
Visibility 10 miles    
Events      
Averages and records for this station are not official NWS values.
T = Trace of Precipitation, MM = Missing Value Source: NWS Daily Summary

Daily Weather History Graph

Daily Weather History Graph

Search for Another Location

Airport or City:

Trip Planner

Search our weather history database for the weather conditions in past years. The results will help you decide how hot, cold, wet, or windy it might be!

Date:

Astronomy

Jun. 13, 2012 Rise Set
Actual Time 5:27 AM EDT 8:44 PM EDT
Civil Twilight 4:53 AM EDT 9:19 PM EDT
Nautical Twilight 4:08 AM EDT 10:04 PM EDT
Astronomical Twilight 3:13 AM EDT 10:59 PM EDT
Moon 1:45 AM EDT (6/13) 3:23 PM EDT (6/13)
Length of Visible Light 16h 25m
Length of Day
15h 16m
Waning Crescent, 29% of the Moon is Illuminated
Jun 13
Waning Crescent
Jun 19
New
Jun 26
First Quarter
Jul 3
Full
Jul 10
Last Quarter

Hourly Weather History & Observations

Time (EDT) Temp. Dew Point Humidity Pressure Visibility Wind Dir Wind Speed Gust Speed Precip Events Conditions
12:56 AM 59.9 °F 52.0 °F 75% 29.96 in 10.0 mi NNW 11.5 mph - N/A   Scattered Clouds
1:56 AM 55.9 °F 50.0 °F 80% 29.99 in 10.0 mi NNW 3.5 mph - N/A   Partly Cloudy
2:56 AM 52.9 °F 47.8 °F 83% 29.99 in 10.0 mi NNW 5.8 mph - N/A   Partly Cloudy
3:56 AM 52.0 °F 45.9 °F 80% 30.01 in 10.0 mi NNW 5.8 mph - N/A   Clear
4:56 AM 50.0 °F 45.9 °F 86% 30.02 in 10.0 mi NNW 6.9 mph - N/A   Clear
5:56 AM 50.0 °F 45.9 °F 86% 30.04 in 10.0 mi NNW 6.9 mph - N/A   Partly Cloudy
6:17 AM 51.8 °F 46.4 °F 82% 30.05 in 10.0 mi NW 8.1 mph - N/A   Mostly Cloudy
6:26 AM 51.8 °F 46.4 °F 82% 30.06 in 10.0 mi NW 9.2 mph - N/A   Scattered Clouds
6:56 AM 50.9 °F 45.9 °F 83% 30.08 in 10.0 mi NW 11.5 mph - N/A   Mostly Cloudy
7:56 AM 52.0 °F 46.9 °F 83% 30.09 in 10.0 mi NW 8.1 mph - N/A   Overcast
8:56 AM 52.9 °F 47.8 °F 83% 30.10 in 10.0 mi NW 9.2 mph - N/A   Overcast
9:56 AM 54.0 °F 48.9 °F 83% 30.12 in 10.0 mi NNW 5.8 mph - N/A   Overcast
10:56 AM 56.8 °F 50.9 °F 80% 30.12 in 10.0 mi NW 10.4 mph - N/A   Overcast
11:56 AM 59.0 °F 52.9 °F 80% 30.13 in 10.0 mi NNW 10.4 mph - N/A   Overcast
12:56 PM 63.9 °F 54.0 °F 70% 30.12 in 10.0 mi NNW 11.5 mph 17.3 mph N/A   Mostly Cloudy
1:56 PM 65.8 °F 54.0 °F 65% 30.13 in 10.0 mi NNW 11.5 mph - N/A   Mostly Cloudy
2:56 PM 65.8 °F 52.0 °F 61% 30.14 in 10.0 mi North 8.1 mph - N/A   Mostly Cloudy
3:56 PM 65.8 °F 52.0 °F 61% 30.14 in 10.0 mi North 10.4 mph - N/A   Mostly Cloudy
4:56 PM 66.9 °F 52.0 °F 59% 30.14 in 10.0 mi NNW 8.1 mph 18.4 mph N/A   Scattered Clouds
5:56 PM 65.8 °F 50.9 °F 58% 30.14 in 10.0 mi NW 10.4 mph - N/A   Scattered Clouds
6:56 PM 63.9 °F 50.0 °F 61% 30.15 in 10.0 mi NNW 11.5 mph - N/A   Partly Cloudy
7:56 PM 61.0 °F 50.9 °F 69% 30.16 in 10.0 mi NNW 6.9 mph - N/A   Clear
9:56 PM 54.0 °F 50.0 °F 86% 30.19 in 10.0 mi North 4.6 mph - N/A   Clear
10:56 PM 50.0 °F 48.2 °F 94% 30.19 in 10.0 mi Calm Calm - N/A   Clear
11:56 PM 48.9 °F 48.9 °F 100% 30.22 in 10.0 mi North 3.5 mph - N/A   Clear